カタログに戻る

TITAN 3C TRANSTAGE DEB

LostHEO
NORAD 26049·DEBRIS·🇺🇸 United States

打ち上げ Dec 21, 1965 から Cape Canaveral Space Force Station

Loading…

次のパス (今後24時間)

TLE

古いSource: Space-Track

元期: Jun 12, 2026, 17:07 UTC

1 26049U 65108AH  26163.71386265  .00039503  00000-0  29113-1 0  9994
2 26049  27.2548 197.6605 4740588 217.4119  97.6518  5.89214007109941

AllMySatでTITAN 3C TRANSTAGE DEBをリアルタイム追跡

Download on the App Store